Location: Island Grove Observatory.
(44.2333°N, 79.4500°W)
Time: 11:00:02
(UTC-05:00)

N. Korean satellite - Pass Details

Date: 03 December 2021
Orbit: 447 x 491 km, 97.3° (Epoch: 23 January)

Event Time Altitude Azimuth Distance (km) Brightness Sun altitude
Rises 17:10:19 0° 186° (S) 2,533 10.7 -5.7°
Reaches altitude 10° 17:12:30 10° 195° (SSW) 1,651 9.9 -6.0°
Maximum altitude 17:15:46 35° 262° (W) 791 8.5 -6.6°
Drops below altitude 10° 17:19:02 10° 330° (NNW) 1,639 9.3 -7.1°
Sets 17:21:12 0° 340° (NNW) 2,512 10.2 -7.5°
